Weather History for Lone Rock, WI

Change the Weather History Date:

Friday, November 2, 2012

  Actual Average Record
Temperature  
Mean Temperature 35 °F -  
Max Temperature 46 °F 49 °F 66 °F (2000)
Min Temperature 24 °F 32 °F 17 °F (2006)
Degree Days  
Heating Degree Days 30    
Moisture  
Dew Point 25 °F    
Average Humidity 66    
Maximum Humidity 89    
Minimum Humidity 39    
Precipitation  
Precipitation 0.00 in - - ()
Sea Level Pressure  
Sea Level Pressure 30.10 in    
Wind  
Wind Speed 3 mph (NNE)    
Max Wind Speed 6 mph    
Max Gust Speed -    
Visibility 10 miles    
Events      
Averages and records for this station are not official NWS values.
T = Trace of Precipitation, MM = Missing Value Source: NWS Daily Summary

Daily Weather History Graph

Daily Weather History Graph

Search for Another Location

Airport:

Trip Planner

Search our weather history database for the weather conditions in past years. The results will help you decide how hot, cold, wet, or windy it might be!

Date:

Astronomy

Nov. 02, 2012 Rise Set
Actual Time 7:37 AM CDT 5:50 PM CDT
Civil Twilight 7:07 AM CDT 6:20 PM CDT
Nautical Twilight 6:34 AM CDT 6:53 PM CDT
Astronomical Twilight 6:00 AM CDT 7:26 PM CDT
Moon 8:34 PM CDT (11/2) 11:01 AM CDT (11/2)
Length of Visible Light 11h 12m
Length of Day
10h 12m
Waning Gibbous, 87% of the Moon is Illuminated
Nov 2
Waning Gibbous
Nov 6
Last Quarter
Nov 13
New
Nov 20
First Quarter
Nov 28
Full

Hourly Weather History & Observations

Time (CDT) Temp. Windchill Dew Point Humidity Pressure Visibility Wind Dir Wind Speed Gust Speed Precip Events Conditions
12:56 AM 36.0 °F 32.1 °F 28.0 °F 73% 30.00 in 10.0 mi North 4.6 mph - N/A   Clear
1:56 AM 35.1 °F 31.0 °F 28.0 °F 76% 30.01 in 10.0 mi NNW 4.6 mph - N/A   Clear
2:56 AM 32.0 °F 28.7 °F 27.0 °F 82% 30.02 in 10.0 mi WNW 3.5 mph - N/A   Clear
3:56 AM 27.0 °F - 24.1 °F 89% 30.04 in 10.0 mi Calm Calm - N/A   Clear
4:56 AM 32.0 °F 27.5 °F 26.1 °F 79% 30.04 in 10.0 mi NNW 4.6 mph - N/A   Clear
5:56 AM 27.0 °F - 23.0 °F 85% 30.06 in 10.0 mi Calm Calm - N/A   Clear
6:56 AM 26.1 °F - 21.9 °F 84% 30.09 in 10.0 mi Calm Calm - N/A   Clear
7:56 AM 24.1 °F - 21.0 °F 88% 30.09 in 10.0 mi Calm Calm - N/A   Clear
8:56 AM 30.0 °F - 26.1 °F 85% 30.11 in 10.0 mi Calm Calm - N/A   Clear
9:56 AM 36.0 °F 33.3 °F 27.0 °F 70% 30.12 in 10.0 mi Variable 3.5 mph - N/A   Clear
10:56 AM 39.9 °F - 26.1 °F 58% 30.12 in 10.0 mi Calm Calm - N/A   Clear
11:56 AM 41.0 °F 39.0 °F 25.0 °F 53% 30.13 in 10.0 mi Variable 3.5 mph - N/A   Clear
12:56 PM 44.1 °F 42.5 °F 24.1 °F 45% 30.11 in 10.0 mi NE 3.5 mph - N/A   Clear
1:56 PM 44.1 °F 42.5 °F 25.0 °F 47% 30.10 in 10.0 mi West 3.5 mph - N/A   Clear
2:56 PM 45.0 °F - 23.0 °F 42% 30.09 in 10.0 mi Calm Calm - N/A   Clear
3:56 PM 46.0 °F 44.8 °F 21.9 °F 39% 30.10 in 10.0 mi ENE 3.5 mph - N/A   Clear
4:56 PM 45.0 °F 43.5 °F 21.9 °F 40% 30.10 in 10.0 mi ESE 3.5 mph - N/A   Clear
5:56 PM 41.0 °F 38.0 °F 24.1 °F 51% 30.10 in 10.0 mi ENE 4.6 mph - N/A   Clear
6:56 PM 39.9 °F 35.8 °F 23.0 °F 51% 30.11 in 10.0 mi NE 5.8 mph - N/A   Clear
7:56 PM 39.0 °F 36.8 °F 25.0 °F 57% 30.14 in 10.0 mi SW 3.5 mph - N/A   Partly Cloudy
8:56 PM 36.0 °F - 27.0 °F 70% 30.14 in 10.0 mi Calm Calm - N/A   Clear
9:56 PM 34.0 °F 31.0 °F 26.1 °F 73% 30.14 in 10.0 mi East 3.5 mph - N/A   Clear
10:56 PM 30.9 °F - 25.0 °F 79% 30.17 in 10.0 mi Calm Calm - N/A   Scattered Clouds
11:56 PM 33.1 °F - 27.0 °F 78% 30.18 in 10.0 mi Calm Calm - N/A   Overcast